SPRFLD Weather Reports


time (UTC)temp
C
wind
direction
speed
KPH
gust
KPH
rain 1hr
cm
rain 24hr
cm
rain mn
cm
humidity
%
barometer
mb
20260505211830 14 316 1.6 6.4 0.00 0.00 0.00 80 1016.9
20260505210828 14 282 3.2 6.4 0.00 0.00 0.00 81 1017.0
20260505205828 13 251 0.0 4.8 0.00 0.00 0.00 82 1017.0
20260505204825 13 250 1.6 4.8 0.00 0.00 0.00 81 1017.0
20260505203845 13 0.0 3.2 0.00 0.00 0.00 83 1017.0
20260505202823 13 253 1.6 3.2 0.00 0.00 0.00 87 1017.0
20260505201819 12 248 1.6 4.8 0.00 0.00 0.00 86 1016.9
20260505200819 12 257 3.2 4.8 0.00 0.00 0.00 86 1017.1
20260505195815 12 312 1.6 3.2 0.00 0.00 0.00 86 1017.0
20260505194813 12 282 0.0 3.2 0.00 0.00 0.00 86 1017.1
20260505193812 12 270 1.6 3.2 0.00 0.00 0.00 88 1017.0
20260505192830 12 286 0.0 3.2 0.00 0.00 0.00 88 1017.0
20260505191808 11 0.0 3.2 0.00 0.00 0.00 88 1017.0
20260505190810 11 286 1.6 3.2 0.00 0.00 0.00 88 1016.9
20260505185824 11 0.0 3.2 0.00 0.00 0.00 89 1017.0
20260505184923 11 281 0.0 3.2 0.00 0.00 0.00 91 1016.9
20260505183830 11 281 0.0 3.2 0.00 0.00 0.00 92 1016.8
20260505182852 11 280 1.6 3.2 0.00 0.00 0.00 92 1016.8
20260505181827 10 0.0 1.6 0.00 0.00 0.00 91 1016.8
20260505180825 11 255 1.6 3.2 0.00 0.00 0.00 92 1016.7
20260505175825 10 0.0 0.0 0.00 0.00 0.00 93 1016.7
20260505174842 10 0.0 3.2 0.00 0.00 0.00 93 1016.7
20260505173820 10 255 1.6 3.2 0.00 0.00 0.00 93 1016.6
20260505172838 10 255 1.6 3.2 0.00 0.00 0.00 92 1016.6
20260505171816 10 0.0 3.2 0.00 0.00 0.00 93 1016.5
20260505170815 10 255 1.6 3.2 0.00 0.00 0.00 94 1016.6
20260505165811 10 0.0 3.2 0.00 0.00 0.00 94 1016.6
20260505164808 10 222 0.0 3.2 0.00 0.00 0.00 94 1016.6
20260505163849 10 242 1.6 4.8 0.00 0.00 0.00 95 1016.6
20260505162803 10 259 3.2 4.8 0.00 0.00 0.00 95 1016.5
20260505161852 9 254 1.6 3.2 0.00 0.00 0.00 95 1016.5
20260505160827 9 259 1.6 6.4 0.00 0.00 0.00 95 1016.5
20260505152817 9 250 1.6 3.2 0.00 0.00 0.00 95 1016.5
20260505151813 9 248 0.0 4.8 0.00 0.00 0.00 95 1016.4
20260505150810 8 208 1.6 4.8 0.00 0.00 0.00 95 1016.4
20260505124851 8 0.0 3.2 0.00 0.00 0.00 95 1015.8
20260505123828 8 0.0 3.2 0.00 0.00 0.00 95 1015.8
20260505122827 8 0.0 3.2 0.00 0.00 0.00 95 1015.8
20260505121845 8 300 0.0 1.6 0.00 0.00 0.00 95 1015.6
20260505120823 8 0.0 3.2 0.00 0.00 0.00 95 1015.6
20260505115822 8 300 1.6 3.2 0.00 0.00 0.00 95 1015.6
20260505114840 8 257 1.6 3.2 0.00 0.00 0.00 95 1015.6
20260505113818 8 264 1.6 9.7 0.00 0.00 0.00 95 1015.6
20260505112816 8 258 0.0 3.2 0.00 0.00 0.00 95 1015.7
20260505111835 8 258 1.6 3.2 0.00 0.00 0.00 95 1015.6
20260505110813 8 248 1.6 3.2 0.00 0.00 0.00 95 1015.7
20260505101804 9 257 0.0 3.2 0.00 0.00 0.00 95 1015.4
20260505100832 8 257 0.0 3.2 0.00 0.00 0.00 95 1015.4
20260505095828 8 0.0 3.2 0.00 0.00 0.00 95 1015.4
20260505094827 8 257 1.6 4.8 0.00 0.00 0.00 95 1015.3
20260505093829 8 254 3.2 6.4 0.00 0.00 0.00 94 1015.3
20260505092842 9 262 1.6 4.8 0.00 0.00 0.00 94 1015.3
20260505091821 9 274 1.6 8.0 0.00 0.00 0.00 94 1015.3
20260505090817 9 255 1.6 4.8 0.00 0.00 0.00 94 1015.2
20260505085833 9 258 1.6 6.4 0.00 0.00 0.00 94 1015.2
20260505084833 9 257 3.2 4.8 0.00 0.00 0.00 94 1015.2
20260505083811 9 0.0 3.2 0.00 0.00 0.00 94 1015.3
20260505082828 9 217 1.6 3.2 0.00 0.00 0.00 94 1015.3
20260505081826 9 244 1.6 4.8 0.00 0.00 0.00 94 1015.5
20260505080806 9 238 1.6 4.8 0.00 0.00 0.00 93 1015.3
20260505075833 9 242 3.2 3.2 0.00 0.00 0.00 93 1015.4
20260505074830 9 245 1.6 4.8 0.00 0.00 0.00 93 1015.4
20260505073828 9 252 1.6 12.9 0.00 0.00 0.00 93 1015.5
20260505072826 9 252 3.2 11.3 0.00 0.00 0.00 92 1015.5
20260505071824 9 249 6.4 12.9 0.00 0.00 0.00 92 1015.5
20260505070824 10 256 3.2 14.5 0.00 0.00 0.00 91 1015.4
20260505065821 10 265 3.2 6.4 0.00 0.00 0.00 90 1015.4
20260505064839 10 253 1.6 12.9 0.00 0.00 0.00 90 1015.4
20260505063858 10 255 1.6 3.2 0.00 0.00 0.00 90 1015.4
20260505062815 10 255 1.6 4.8 0.00 0.00 0.00 89 1015.3
20260505061813 10 246 3.2 6.4 0.00 0.00 0.00 89 1015.3
20260505060812 10 265 1.6 3.2 0.00 0.00 0.00 88 1015.3
20260505055807 10 265 0.0 3.2 0.00 0.00 0.00 88 1015.4
20260505054806 10 0.0 3.2 0.00 0.00 0.00 88 1015.4
20260505053824 10 267 1.6 3.2 0.00 0.00 0.00 88 1015.3
20260505052824 10 273 1.6 3.2 0.00 0.00 0.00 88 1015.2
20260505051830 10 261 1.6 3.2 0.00 0.00 0.00 87 1015.2
20260505050828 11 256 1.6 4.8 0.00 0.00 0.00 87 1015.2
20260505040818 11 259 1.6 4.8 0.00 0.00 0.00 87 1014.7
20260505035816 11 259 1.6 4.8 0.00 0.00 0.00 86 1014.5
20260505034813 11 244 1.6 6.4 0.00 0.00 0.00 86 1014.4
20260505033812 11 244 1.6 8.0 0.00 0.00 0.00 85 1014.3
20260505032810 12 251 3.2 14.5 0.00 0.00 0.00 84 1014.2
20260505031828 12 249 6.4 14.5 0.00 0.00 0.00 84 1014.1
20260505030808 12 233 3.2 16.1 0.00 0.00 0.00 83 1013.9
20260505025805 12 246 1.6 11.3 0.00 0.00 0.00 83 1013.8
20260505024802 13 232 3.2 11.3 0.00 0.00 0.00 82 1013.7
20260505023830 13 240 1.6 12.9 0.00 0.00 0.00 80 1013.6
20260505022829 13 265 4.8 12.9 0.00 0.00 0.00 79 1013.5
20260505021848 14 257 3.2 14.5 0.00 0.00 0.00 78 1013.5
20260505020826 14 265 3.2 17.7 0.00 0.00 0.00 76 1013.5
20260505015823 15 271 3.2 8.0 0.00 0.00 0.00 75 1013.5
20260505014841 15 283 3.2 14.5 0.00 0.00 0.00 74 1013.5
20260505013819 15 296 1.6 14.5 0.00 0.00 0.00 72 1013.5
20260505012817 16 301 3.2 9.7 0.00 0.00 0.00 71 1013.5
20260505011816 16 273 3.2 16.1 0.00 0.00 0.00 71 1013.5
20260505010814 17 290 3.2 12.9 0.00 0.00 0.00 69 1013.6
20260505005811 17 303 3.2 22.5 0.00 0.00 0.00 66 1013.5
20260505004829 18 304 3.2 24.1 0.00 0.00 0.00 63 1013.7
20260505003807 19 259 8.0 17.7 0.00 0.00 0.00 61 1013.6
20260505002804 19 293 1.6 11.3 0.00 0.00 0.00 61 1013.6
20260505001844 19 269 3.2 16.1 0.00 0.00 0.00 64 1013.6
20260505000830 19 239 4.8 9.7 0.00 0.00 0.00 64 1013.7
20260504235829 19 266 3.2 14.5 0.00 0.00 0.00 63 1013.8
20260504234828 19 281 3.2 9.7 0.00 0.00 0.00 61 1013.8
20260504233826 20 287 1.6 9.7 0.00 0.00 0.00 60 1013.9
20260504232823 19 286 3.2 16.1 0.00 0.00 0.00 62 1013.9
20260504231821 19 236 6.4 17.7 0.00 0.00 0.00 63 1014.0
20260504230821 19 269 6.4 19.3 0.00 0.00 0.00 63 1014.1
20260504225819 19 258 4.8 14.5 0.00 0.00 0.00 62 1014.1
20260504224815 18 291 3.2 6.4 0.00 0.00 0.00 62 1014.2
20260504223812 18 12 0.0 11.3 0.00 0.00 0.00 65 1014.4
20260504222810 17 274 1.6 8.0 0.00 0.00 0.00 71 1014.6
20260504221808 16 318 3.2 16.1 0.00 0.00 0.00 72 1014.6
20260504220806 16 268 1.6 12.9 0.00 0.00 0.00 75 1014.7
20260504215805 15 261 3.2 16.1 0.00 0.00 0.00 73 1014.8
20260504214804 15 298 1.6 4.8 0.00 0.00 0.00 75 1014.8
20260504213933 15 269 1.6 12.9 0.00 0.00 0.00 76 1015.0
20260504212829 14 279 1.6 12.9 0.00 0.00 0.00 77 1014.9